Wetbulb
48.88 45.23 44.84 47.10 42.60 39.61 35.20 36.23 41.96 42.44 43.33 44.98 44.01 44.91 45.98 47.07 46.76 44.00 55.07 56.67 57.04 61.98 67.62 71.26 71.53 72.94 72.96 72.84 72.98 72.96 73.08 73.38 73.73 74.16 74.23 74.12 73.94 73.32 73.44 73.25 72.92 72.83 72.85 71.43 70.30 70.74 69.84 70.63 70.29
44.75 46.53 44.89 40.94 32.87 30.18 30.63 38.07 39.00 42.10 44.69 41.96 41.72 45.40 45.23 45.12 47.33 48.50 52.14 53.50 55.07 62.32 66.82 68.98 69.90 71.85 72.47 72.60 72.52 72.57 72.71 72.97 73.33 73.58 73.70 73.71 73.63 73.07 73.28 73.11 72.71 72.65 72.93 71.14 70.35 70.38 69.53 70.08 70.27
44.54 43.29 39.15 37.40 29.51 26.88 28.49 34.08 38.85 39.57 39.84 40.73 40.70 45.58 43.70 44.36 46.89 48.02 51.46 52.08 54.20 56.90 62.87 64.54 69.10 71.26 72.02 72.22 72.34 72.34 72.41 72.59 72.78 73.01 73.53 73.54 73.28 72.92 72.94 72.70 72.42 72.40 72.57 71.55 70.44 70.42 69.58 69.72 69.70
40.19 39.82 35.43 29.91 27.45 30.60 30.73 36.19 36.67 35.83 38.91 40.13 40.39 37.94 45.22 46.15 44.53 46.05 48.70 51.12 52.17 53.78 56.74 60.68 64.86 68.45 70.37 70.38 70.97 71.87 72.36 72.67 72.55 72.37 72.96 73.19 73.03 72.55 72.36 71.94 72.05 72.02 72.00 71.95 70.72 70.54 69.76 69.93 69.83
36.27 34.46 28.15 26.96 26.65 30.50 35.20 37.09 34.65 33.95 35.49 36.17 37.46 37.63 42.45 42.28 42.61 43.62 45.14 46.76 48.81 52.05 54.73 56.06 59.76 62.24 65.73 68.52 70.22 70.47 71.10 71.73 72.27 72.20 72.03 72.67 72.36 72.04 71.97 71.57 71.53 71.29 71.41 71.42 70.78 70.58 70.01 69.75 69.61
31.88 31.24 25.34 23.59 25.55 30.70 31.79 32.41 32.53 32.46 33.74 34.99 35.55 35.67 41.04 41.75 41.50 42.13 43.09 43.56 44.95 49.14 53.12 54.78 56.08 58.39 61.38 62.84 65.61 67.52 69.71 70.39 71.12 71.49 71.11 71.17 71.68 71.66 71.61 71.24 71.16 71.10 71.12 70.61 70.25 69.90 69.64 69.42 69.54
29.85 27.56 24.64 23.28 24.33 26.85 30.69 33.20 31.79 31.95 32.35 34.06 35.25 34.57 41.02 40.04 41.16 42.35 42.78 43.49 44.14 45.91 51.06 52.01 54.27 55.01 57.27 59.53 60.42 63.46 65.33 66.72 69.27 70.16 70.08 69.55 69.39 69.73 70.22 70.26 70.78 70.73 70.60 69.85 69.53 69.18 68.97 69.24 69.53
29.78 28.04 24.69 23.80 23.59 26.26 31.17 33.00 34.60 33.69 33.16 36.84 37.71 33.42 34.56 39.19 41.33 41.70 42.97 43.19 43.74 45.78 47.97 49.23 49.82 52.83 54.56 57.41 57.97 58.67 62.43 63.51 65.53 66.90 66.81 66.00 66.26 67.17 67.59 66.82 68.66 69.98 69.69 69.11 68.71 68.39 68.64 69.23 68.86
33.98 25.36 22.28 24.65 24.41 27.31 32.02 31.00 34.87 36.06 33.45 34.52 36.73 36.20 35.77 38.28 40.06 40.00 40.24 41.53 42.07 43.88 45.23 46.74 48.29 47.47 50.95 54.15 54.26 56.51 58.49 60.95 62.59 64.42 63.34 63.64 67.52 68.08 67.41 66.19 66.78 68.90 68.61 68.46 68.29 68.40 68.41 67.27 66.38
29.73 24.35 25.23 28.74 28.97 28.77 31.56 31.24 32.16 32.42 32.25 32.24 32.84 35.49 35.55 35.83 35.58 35.09 35.79 36.91 38.52 39.70 41.32 44.49 44.80 47.08 48.61 50.74 52.46 52.67 55.80 57.66 60.46 63.42 65.93 66.70 67.33 67.58 67.48 64.33 63.93 65.65 66.13 67.28 68.15 68.31 66.12 64.58 67.14
30.32 25.56 28.65 30.52 31.82 32.50 31.13 30.47 33.06 30.74 28.64 29.46 29.52 29.97 32.38 32.69 33.13 33.16 34.01 35.08 35.88 37.89 39.94 41.66 42.87 44.77 47.96 50.40 52.30 52.56 53.76 55.50 57.49 60.16 63.68 66.04 66.82 67.16 66.28 66.11 65.64 66.80 62.02 67.77 67.41 67.36 67.01 66.22 65.83
26.85 29.87 30.58 31.94 33.11 31.95 29.81 32.19 30.57 30.88 28.23 30.86 29.69 30.56 30.77 30.40 30.86 31.64 32.57 34.00 35.20 36.51 38.56 40.26 41.70 42.03 45.48 50.06 51.29 51.34 52.31 53.64 54.70 56.35 58.72 61.90 64.14 66.20 65.92 65.88 65.44 66.10 66.48 66.70 67.10 66.96 65.80 65.14 64.81
28.12 28.71 31.56 32.32 31.77 30.76 31.98 29.63 29.85 25.63 28.48 29.85 30.23 29.79 29.16 29.70 30.45 31.81 33.02 34.10 35.47 36.07 38.02 40.11 41.49 41.46 42.82 44.99 49.66 49.73 50.67 51.92 52.88 54.21 55.73 58.37 60.13 62.61 65.93 65.37 65.07 64.94 65.17 65.87 66.05 65.36 64.37 64.23 63.64
30.33 30.05 29.83 31.09 31.36 31.17 28.46 28.09 29.08 27.44 28.08 27.34 27.37 26.80 28.48 29.43 30.09 30.85 31.46 32.05 33.68 36.06 38.29 41.27 41.86 41.48 42.48 43.93 48.40 48.72 50.03 50.57 51.89 53.00 54.22 56.20 59.16 60.81 65.31 65.13 64.60 64.30 64.30 64.73 64.79 64.37 64.19 63.89 63.65
31.17 26.80 28.16 28.23 29.24 28.82 29.23 25.17 25.15 25.93 27.05 24.86 24.33 24.77 26.60 28.34 29.81 30.13 30.62 31.41 33.57 36.43 39.44 40.98 41.80 42.72 42.40 44.81 47.82 48.71 49.46 50.61 51.23 51.63 53.01 54.73 57.33 59.01 62.60 64.80 63.98 63.14 63.27 63.70 63.64 63.26 63.37 62.84 62.66
25.88 25.55 20.22 27.38 28.39 29.41 27.45 19.50 25.12 25.58 24.38 22.60 23.12 23.19 24.70 26.36 27.71 29.53 30.13 31.50 35.03 36.77 38.32 41.52 42.04 40.30 42.55 44.43 46.39 47.12 47.91 48.87 49.86 51.04 52.05 53.41 55.60 57.24 61.16 63.37 63.80 63.43 63.47 63.39 62.51 61.97 61.14 61.19 61.42
23.23 17.91 19.51 22.24 27.47 26.31 25.47 20.90 24.77 25.72 23.35 21.48 22.01 22.47 23.31 24.46 26.18 27.57 29.27 31.39 34.44 36.71 38.28 39.82 40.48 39.68 42.92 44.11 45.71 46.63 47.08 47.88 48.79 49.66 50.80 52.02 53.84 56.13 59.38 62.83 63.71 63.96 63.06 62.30 61.88 61.23 61.06 59.67 59.94
19.08 18.85 20.30 19.84 24.04 24.66 22.89 22.12 23.42 24.50 22.28 20.90 21.14 21.21 21.66 22.47 23.79 26.59 28.27 30.66 33.88 35.70 38.27 39.52 41.09 44.36 45.85 46.24 44.60 45.84 46.38 47.25 47.67 48.65 50.27 51.65 53.68 54.73 57.52 60.68 63.32 62.81 62.04 61.23 61.38 60.67 60.63 59.87 59.14
23.08 21.13 19.39 22.35 25.55 21.84 21.05 20.51 22.75 22.95 21.09 20.33 20.51 20.16 20.24 21.12 24.22 26.19 27.83 29.67 31.76 34.12 35.60 37.64 41.26 43.12 44.05 44.15 43.34 44.30 45.02 46.50 48.59 50.85 51.88 52.99 55.17 55.22 56.19 58.04 61.59 61.85 61.19 60.51 61.20 60.43 58.73 57.98 58.77
24.21 21.19 19.40 22.24 24.44 22.77 20.10 19.79 19.55 22.52 20.41 20.72 19.85 19.26 19.60 20.16 21.85 24.10 26.07 28.06 29.26 31.54 33.34 35.42 38.66 40.35 41.47 42.05 43.08 46.03 46.68 48.01 48.63 50.13 52.61 55.31 56.71 57.49 57.25 60.43 61.36 61.52 60.72 60.12 60.12 59.50 58.13 56.98 58.57
22.82 20.50 19.96 19.35 22.51 22.06 20.37 15.19 15.99 21.16 22.27 22.30 21.18 20.20 19.75 19.33 20.09 22.04 24.14 25.88 27.75 29.51 31.46 33.23 36.85 38.25 39.38 40.61 42.99 45.49 47.22 48.20 48.88 51.13 53.12 52.23 51.56 52.39 59.27 61.57 61.60 61.27 61.14 59.61 59.73 59.84 58.88 56.56 57.81
13.61 24.12 21.86 19.19 13.40 11.73 16.93 7.99 14.71 17.95 18.18 19.00 18.01 17.00 17.43 18.88 20.96 21.89 22.99 24.18 26.24 28.59 30.94 32.25 35.30 36.71 38.13 39.04 40.52 41.81 42.99 43.65 47.12 49.71 50.57 48.33 46.78 46.95 50.52 61.58 61.05 60.52 60.45 59.53 59.57 59.91 58.95 57.90 54.91
18.00 23.58 19.88 19.02 12.73 11.61 16.81 9.38 12.44 14.94 14.68 14.94 14.99 15.70 15.98 18.62 20.53 21.18 22.37 24.24 26.57 28.24 29.49 31.03 33.09 34.88 35.63 36.88 38.52 40.40 41.70 45.87 48.48 47.50 45.32 43.90 42.44 42.45 43.94 50.58 57.19 53.46 51.00 47.78 55.91 56.93 57.32 56.42 55.35
24.41 18.62 20.07 15.56 14.73 1.67 10.71 12.81 12.16 9.65 8.84 11.72 13.02 13.54 15.15 17.85 19.30 21.00 22.47 24.22 25.03 26.97 28.27 29.69 30.73 32.27 33.55 34.85 35.72 36.97 38.34 39.63 40.80 40.84 40.38 39.51 39.17 38.72 39.45 41.28 42.91 43.36 40.97 39.96 38.05 37.60 36.46 37.25 37.62
18.91 11.50 3.23 5.35 2.93 2.85 15.24 13.20 13.34 9.85 12.15 10.24 9.08 10.16 13.99 17.44 18.31 19.29 20.18 21.68 23.28 24.46 26.37 27.98 28.45 29.07 30.89 31.82 32.27 33.61 35.26 35.41 35.93 35.98 35.59 35.45 35.50 34.41 35.52 36.31 37.34 36.30 35.98 35.04 34.29 33.14 32.16 31.70 30.72
17.99 8.91 4.72 0.43 0.25 4.81 15.40 9.50 14.68 12.02 10.31 6.77 8.38 8.14 15.88 16.02 17.50 18.35 19.91 21.19 22.17 23.45 25.27 26.15 26.60 26.98 28.53 29.46 29.56 30.76 31.48 32.01 32.59 32.78 33.00 32.69 32.86 32.35 32.69 36.59 33.06 37.35 33.44 32.02 31.71 30.36 30.03 29.80 28.36
17.17 11.97 17.28 2.69 4.56 3.89 10.26 15.91 14.21 16.53 14.66 10.61 6.78 13.07 12.96 14.45 16.12 17.47 19.46 20.66 21.48 22.36 24.16 24.97 25.35 25.91 26.65 27.20 27.75 27.86 28.63 28.88 28.69 29.74 30.67 30.56 31.22 31.65 30.69 30.11 30.57 30.31 29.77 28.77 28.15 26.91 25.92 26.08 25.26
20.19 21.03 8.79 6.73 -1.88 -2.58 6.49 11.19 13.76 11.44 10.31 11.11 6.78 10.82 12.45 14.28 15.30 17.02 18.28 19.43 20.92 22.07 23.88 24.59 25.17 25.22 25.66 25.82 26.21 25.93 25.92 26.60 26.73 26.48 26.05 26.64 27.26 28.05 28.08 27.60 26.55 26.80 27.10 26.22 25.56 24.39 23.98 22.79 22.35
14.86 12.71 14.84 12.04 9.12 0.75 1.05 7.15 11.26 10.70 9.09 7.76 8.34 12.41 11.47 13.89 14.53 16.06 17.32 18.24 19.75 21.06 22.54 23.83 24.08 24.16 24.73 24.88 24.76 24.46 24.55 24.16 23.76 23.82 24.49 24.34 24.78 25.27 24.53 24.23 24.35 24.54 24.58 24.13 23.63 23.02 22.80 21.70 21.32
16.96 6.90 8.02 5.27 4.35 8.34 7.53 6.07 8.46 10.13 8.61 9.99 11.93 13.15 14.25 15.35 14.67 15.13 15.46 15.70 16.78 18.38 19.81 22.35 23.27 23.35 24.24 24.89 24.30 23.70 23.53 23.05 22.24 21.79 22.31 23.59 22.67 23.12 22.80 23.02 23.13 22.81 22.92 22.92 22.15 21.43 21.54 20.65 19.89
MSLP
1015.46 1015.35 1015.22 1015.49 1017.16 1017.92 1017.70 1016.74 1016.12 1015.40 1014.85 1014.31 1014.01 1013.81 1013.57 1013.21 1013.01 1013.03 1012.41 1012.38 1011.90 1011.40 1010.63 1010.10 1009.69 1009.48 1009.44 1009.42 1009.67 1009.99 1010.31 1010.87 1011.08 1011.40 1011.74 1011.92 1012.14 1012.65 1013.03 1013.26 1013.50 1013.71 1014.10 1014.48 1014.81 1015.30 1015.90 1016.21 1016.46
1015.53 1015.28 1015.70 1016.94 1018.09 1018.70 1017.95 1016.82 1016.09 1015.52 1014.88 1014.36 1013.89 1013.71 1013.78 1013.61 1013.57 1013.25 1012.90 1012.81 1012.27 1011.52 1010.89 1010.43 1009.92 1009.65 1009.52 1009.61 1009.66 1009.86 1010.15 1010.57 1011.02 1011.29 1011.51 1011.81 1012.00 1012.54 1012.82 1013.17 1013.46 1013.63 1013.99 1014.27 1014.57 1014.95 1015.69 1016.27 1016.52
1015.59 1015.82 1017.05 1018.11 1019.04 1018.72 1017.91 1016.95 1016.49 1015.84 1015.19 1014.71 1014.35 1014.18 1014.24 1014.18 1014.11 1014.13 1014.13 1013.50 1012.51 1011.91 1011.39 1010.95 1010.17 1009.82 1009.55 1009.61 1009.77 1009.88 1010.04 1010.43 1010.80 1011.07 1011.42 1011.67 1011.94 1012.35 1012.59 1013.01 1013.31 1013.55 1013.93 1014.26 1014.45 1014.80 1015.42 1015.94 1016.46
1016.16 1016.95 1018.87 1019.04 1019.02 1018.50 1017.97 1017.24 1016.92 1016.33 1015.56 1015.22 1015.21 1014.87 1014.64 1014.72 1014.91 1014.85 1014.27 1013.71 1013.00 1012.35 1011.95 1011.62 1010.86 1010.31 1010.08 1010.17 1010.07 1010.02 1010.11 1010.37 1010.62 1011.00 1011.25 1011.55 1011.82 1012.22 1012.47 1012.89 1013.25 1013.54 1013.86 1014.28 1014.52 1014.82 1015.33 1015.81 1016.18
1017.26 1018.36 1019.42 1019.71 1019.35 1018.81 1018.30 1017.81 1017.47 1017.04 1016.52 1016.07 1015.91 1015.29 1015.13 1015.22 1015.18 1014.84 1014.40 1014.07 1013.65 1013.02 1012.38 1011.94 1011.50 1011.17 1010.94 1010.82 1010.53 1010.46 1010.35 1010.34 1010.52 1010.76 1011.06 1011.46 1011.85 1012.14 1012.38 1012.71 1013.16 1013.46 1013.83 1014.18 1014.48 1014.86 1015.40 1015.81 1016.05
1018.37 1019.31 1020.15 1020.40 1019.73 1019.15 1018.81 1018.57 1018.11 1017.78 1017.39 1016.79 1016.46 1016.27 1015.59 1015.43 1015.03 1015.01 1014.65 1014.18 1013.87 1013.56 1013.02 1012.58 1012.05 1011.68 1011.52 1011.30 1011.21 1011.08 1010.73 1010.59 1010.63 1010.71 1011.04 1011.30 1011.81 1012.06 1012.29 1012.65 1012.94 1013.42 1013.68 1014.15 1014.43 1014.79 1015.35 1015.92 1016.17
1018.85 1019.81 1020.31 1020.42 1019.99 1019.58 1019.22 1018.80 1018.65 1018.38 1017.97 1017.41 1017.31 1016.93 1016.32 1015.72 1015.67 1015.36 1014.99 1014.42 1013.90 1013.69 1013.35 1012.98 1012.64 1012.33 1011.93 1011.84 1011.73 1011.65 1011.33 1011.19 1010.99 1010.90 1011.09 1011.33 1011.50 1011.73 1012.09 1012.48 1012.91 1013.43 1013.70 1014.12 1014.36 1014.72 1015.24 1015.71 1016.06
1019.27 1020.02 1020.73 1020.69 1020.48 1019.75 1019.41 1019.11 1018.83 1018.72 1018.15 1017.64 1017.34 1017.42 1017.18 1016.68 1016.23 1015.60 1015.10 1014.64 1014.17 1013.66 1013.48 1013.27 1012.93 1012.63 1012.82 1012.31 1011.88 1011.78 1011.77 1011.57 1011.33 1011.14 1011.11 1011.26 1011.63 1011.72 1012.00 1012.51 1013.02 1013.48 1013.77 1014.10 1014.42 1014.78 1015.04 1015.35 1015.82
1019.39 1020.50 1021.10 1020.56 1020.51 1020.01 1019.77 1019.76 1019.25 1019.05 1018.87 1018.58 1018.13 1018.14 1018.63 1017.81 1016.99 1016.11 1015.40 1014.87 1014.59 1014.18 1013.87 1013.55 1013.41 1013.02 1012.78 1012.63 1012.21 1012.17 1011.85 1011.67 1011.55 1011.39 1011.17 1011.33 1011.61 1011.81 1012.02 1012.32 1012.74 1013.24 1013.65 1014.12 1014.47 1014.92 1015.16 1015.27 1015.77
1019.87 1020.68 1020.41 1020.18 1020.05 1020.04 1020.03 1020.11 1019.85 1019.66 1019.34 1019.18 1019.08 1018.90 1019.01 1018.61 1018.07 1017.70 1017.13 1016.29 1015.65 1015.08 1014.44 1014.01 1013.68 1013.43 1013.06 1012.69 1012.62 1012.20 1011.91 1011.76 1011.73 1011.67 1011.38 1011.22 1011.44 1011.54 1011.57 1011.83 1012.26 1013.15 1013.72 1014.17 1014.50 1014.94 1015.30 1015.50 1015.74
1020.29 1020.37 1020.33 1020.02 1019.93 1020.03 1020.14 1020.18 1020.03 1020.00 1020.14 1020.44 1020.45 1020.13 1019.95 1019.61 1018.83 1018.28 1017.93 1017.73 1017.06 1016.09 1015.23 1014.63 1014.03 1013.51 1013.04 1012.73 1012.46 1012.37 1012.22 1011.87 1011.71 1011.60 1011.68 1011.45 1011.19 1011.42 1011.58 1010.83 1012.18 1013.01 1013.74 1014.02 1014.55 1015.07 1015.51 1015.60 1015.79
1020.57 1020.36 1020.37 1020.03 1019.94 1020.16 1020.21 1020.02 1020.03 1020.22 1021.01 1021.02 1021.13 1021.02 1020.70 1020.18 1019.77 1019.23 1018.62 1017.97 1017.17 1016.36 1015.78 1014.95 1014.47 1013.74 1012.99 1012.40 1012.41 1012.57 1012.31 1012.17 1011.98 1011.91 1012.07 1011.91 1011.61 1011.00 1011.32 1011.17 1012.28 1012.78 1013.61 1013.89 1014.23 1014.69 1015.29 1015.85 1015.96
1020.71 1020.54 1020.33 1019.94 1020.02 1020.07 1020.08 1020.17 1020.32 1020.97 1021.46 1021.52 1021.41 1021.20 1020.89 1020.49 1020.01 1019.44 1018.94 1018.37 1017.64 1016.68 1015.93 1015.27 1014.54 1013.77 1012.96 1012.62 1011.76 1011.90 1012.45 1012.19 1012.05 1012.00 1012.12 1012.13 1011.80 1011.54 1011.23 1011.61 1012.16 1012.28 1013.39 1013.93 1014.20 1014.48 1014.85 1015.46 1015.93
1020.83 1020.83 1020.50 1020.14 1020.07 1020.08 1020.51 1020.49 1020.72 1021.52 1021.63 1021.93 1021.94 1021.65 1021.17 1020.77 1020.23 1019.59 1018.99 1018.34 1017.79 1016.88 1015.94 1015.24 1014.44 1013.70 1013.09 1012.24 1012.19 1011.88 1012.70 1012.17 1011.88 1011.76 1012.05 1012.01 1011.95 1011.51 1011.31 1011.31 1011.48 1012.17 1012.90 1013.47 1013.88 1014.11 1014.80 1015.13 1015.53
1020.81 1021.03 1020.69 1020.08 1020.06 1020.36 1020.56 1020.98 1021.55 1022.07 1022.04 1022.23 1022.28 1022.10 1021.65 1021.05 1020.48 1019.93 1019.41 1018.68 1017.93 1017.06 1016.09 1015.20 1014.45 1013.49 1012.91 1012.43 1012.02 1012.49 1012.20 1012.07 1011.85 1011.56 1011.75 1011.78 1011.61 1011.47 1011.13 1011.09 1011.37 1011.63 1013.12 1013.30 1013.84 1013.99 1014.45 1014.91 1015.18
1021.23 1021.33 1021.04 1020.24 1020.27 1020.58 1021.11 1021.06 1021.82 1022.24 1022.42 1022.57 1022.66 1022.43 1021.98 1021.48 1021.00 1020.18 1019.49 1018.63 1017.70 1016.89 1016.00 1015.00 1014.05 1013.40 1012.54 1011.92 1011.83 1011.87 1012.18 1012.06 1011.15 1011.31 1011.19 1011.55 1011.40 1011.13 1011.10 1010.77 1011.01 1011.44 1011.96 1012.41 1013.19 1013.65 1014.17 1014.67 1014.90
1021.87 1021.80 1021.35 1020.71 1020.56 1020.87 1021.48 1021.33 1021.96 1022.37 1022.69 1022.84 1022.79 1022.47 1022.14 1021.57 1021.02 1020.55 1019.64 1018.62 1017.40 1016.72 1015.69 1014.81 1013.79 1013.02 1012.26 1011.53 1011.31 1010.98 1011.03 1011.00 1011.12 1011.26 1010.94 1011.30 1011.02 1010.88 1010.62 1010.79 1010.55 1011.07 1011.44 1011.87 1012.62 1013.09 1013.62 1014.33 1014.84
1022.31 1021.97 1021.39 1021.09 1020.73 1021.08 1021.36 1020.96 1021.61 1022.31 1022.53 1022.78 1022.64 1022.72 1022.54 1021.98 1021.47 1020.87 1020.07 1019.00 1017.56 1016.85 1015.70 1014.74 1013.70 1012.94 1012.25 1011.64 1011.23 1011.03 1011.06 1010.98 1010.75 1010.83 1011.27 1010.76 1010.28 1010.52 1010.30 1010.39 1010.30 1010.40 1011.17 1011.68 1012.30 1012.58 1013.26 1013.48 1014.25
1022.26 1022.24 1021.42 1020.91 1020.78 1021.42 1020.98 1021.06 1021.38 1022.06 1022.46 1022.75 1022.87 1023.18 1022.95 1022.39 1021.90 1021.30 1020.51 1019.41 1018.05 1016.93 1015.93 1014.93 1013.76 1013.05 1012.59 1012.02 1011.57 1011.13 1010.90 1010.97 1010.97 1010.84 1010.19 1009.78 1009.81 1010.04 1010.11 1009.97 1010.13 1010.21 1010.40 1011.07 1011.51 1012.22 1012.50 1013.51 1013.47
1021.95 1021.79 1021.36 1020.76 1020.73 1021.15 1020.76 1020.61 1021.19 1021.87 1022.46 1023.00 1023.35 1023.58 1023.31 1022.60 1021.89 1021.36 1020.72 1019.83 1018.51 1017.47 1016.59 1015.33 1014.40 1013.60 1013.07 1012.70 1012.39 1011.86 1011.36 1010.69 1010.20 1009.93 1009.61 1009.45 1009.48 1009.50 1009.54 1009.57 1009.68 1009.71 1009.91 1010.74 1011.18 1011.51 1011.46 1012.99 1013.36
1021.74 1021.66 1021.39 1021.33 1020.80 1020.75 1021.27 1020.86 1021.21 1021.73 1022.22 1022.69 1023.34 1023.81 1023.63 1023.15 1022.30 1021.58 1020.89 1020.10 1018.95 1017.82 1016.94 1015.85 1014.83 1014.17 1013.59 1013.06 1012.44 1011.89 1011.28 1010.82 1010.26 1009.96 1009.70 1009.74 1009.95 1009.38 1008.96 1008.89 1008.98 1009.20 1009.44 1009.93 1010.40 1010.76 1010.63 1011.05 1011.86
1022.12 1021.30 1021.81 1021.45 1022.00 1022.04 1022.11 1022.10 1021.35 1021.89 1022.49 1022.91 1023.58 1023.75 1023.66 1023.20 1022.62 1022.01 1021.19 1020.11 1019.10 1018.26 1017.41 1016.40 1015.33 1014.72 1014.03 1013.53 1012.86 1012.19 1011.76 1011.26 1010.56 1010.19 1010.03 1010.28 1010.14 1009.76 1008.74 1008.31 1008.45 1008.56 1008.81 1009.37 1009.78 1010.39 1010.64 1011.04 1011.95
1022.14 1021.80 1022.02 1022.06 1022.54 1022.94 1022.58 1023.37 1021.62 1022.37 1023.09 1023.68 1023.97 1024.09 1023.88 1023.40 1022.81 1022.05 1021.33 1020.46 1019.57 1018.69 1017.80 1016.92 1015.92 1015.20 1014.68 1014.05 1013.44 1012.70 1011.94 1011.27 1010.50 1010.77 1010.46 1010.71 1010.57 1010.16 1009.45 1008.46 1008.31 1008.67 1009.11 1009.75 1009.82 1010.36 1010.60 1010.87 1011.40
1022.84 1022.47 1022.34 1022.79 1023.33 1023.61 1022.96 1023.38 1022.32 1023.30 1024.34 1024.63 1024.90 1024.82 1024.32 1023.51 1022.87 1022.25 1021.57 1020.62 1019.68 1018.88 1018.09 1017.07 1016.24 1015.64 1015.21 1014.64 1014.00 1013.39 1012.88 1012.16 1011.58 1011.46 1011.19 1011.43 1011.15 1010.91 1010.36 1009.97 1009.83 1009.66 1010.23 1010.77 1011.31 1012.06 1012.12 1012.74 1013.19
1023.89 1023.72 1023.85 1024.06 1024.62 1023.86 1023.07 1023.40 1022.22 1023.62 1024.69 1025.56 1025.72 1025.29 1024.67 1023.88 1023.01 1022.22 1021.40 1020.52 1019.73 1019.06 1018.37 1017.66 1017.02 1016.26 1015.73 1015.21 1014.72 1014.18 1013.57 1013.12 1012.90 1012.53 1012.58 1012.51 1012.47 1012.39 1011.80 1011.33 1011.54 1010.96 1011.55 1011.85 1012.25 1013.01 1013.54 1014.64 1015.14
1025.19 1025.54 1026.42 1027.25 1026.70 1024.89 1023.27 1022.88 1022.34 1023.60 1024.64 1025.74 1026.04 1025.59 1024.74 1024.00 1023.34 1022.55 1021.81 1021.11 1020.44 1019.67 1018.88 1018.22 1017.53 1016.94 1016.41 1015.91 1015.50 1015.08 1014.45 1014.00 1013.80 1013.69 1013.70 1013.66 1013.64 1013.45 1013.00 1012.60 1013.39 1012.82 1012.47 1012.99 1013.88 1014.44 1015.56 1016.05 1016.56
1025.44 1026.28 1026.67 1027.47 1027.37 1026.56 1023.14 1022.09 1022.70 1023.83 1025.05 1025.74 1025.92 1025.31 1024.87 1024.27 1023.52 1022.80 1022.09 1021.46 1020.86 1020.33 1019.63 1018.92 1018.19 1017.65 1017.14 1016.74 1016.32 1015.91 1015.43 1015.11 1014.82 1014.62 1014.62 1014.67 1014.62 1014.52 1014.31 1014.18 1015.07 1015.54 1013.45 1014.34 1015.14 1015.97 1017.28 1017.69 1018.64
1025.79 1026.63 1027.31 1027.84 1027.92 1026.99 1023.76 1022.94 1023.05 1024.25 1025.56 1025.82 1025.96 1025.71 1025.31 1024.80 1024.11 1023.36 1022.67 1022.08 1021.42 1020.96 1020.35 1019.74 1019.10 1018.52 1018.02 1017.57 1017.22 1016.96 1016.55 1016.02 1015.71 1015.62 1015.68 1015.81 1015.86 1015.54 1015.22 1015.52 1016.41 1017.07 1015.05 1015.67 1016.75 1018.10 1018.84 1018.78 1019.93
1026.72 1027.12 1027.74 1028.08 1028.33 1028.29 1026.81 1023.17 1023.40 1024.65 1025.81 1026.21 1026.25 1026.16 1025.98 1025.40 1024.85 1024.13 1023.41 1022.75 1022.13 1021.48 1020.81 1020.23 1019.75 1019.29 1018.79 1018.39 1018.16 1017.80 1017.40 1016.99 1016.77 1016.73 1016.81 1017.23 1016.98 1016.36 1016.27 1015.82 1017.65 1019.64 1018.12 1017.65 1018.47 1019.28 1019.62 1020.12 1020.73
1027.28 1027.78 1028.38 1028.53 1028.66 1028.54 1028.23 1024.84 1023.69 1025.05 1026.03 1026.52 1026.66 1026.26 1026.06 1025.84 1025.59 1025.03 1024.19 1023.31 1022.72 1022.11 1021.49 1020.99 1020.60 1020.11 1019.60 1019.25 1018.93 1018.67 1018.40 1018.04 1017.70 1017.82 1018.34 1018.56 1017.66 1017.70 1017.32 1018.68 1019.89 1017.32 1019.68 1020.05 1020.24 1020.99 1021.83 1021.81 1022.33
Wind_Speed
6 4 2 5 4 3 3 7 1 3 1 1 4 4 5 4 3 2 6 8 16 11 11 9 9 7 11 13 13 14 14 13 15 17 18 19 20 19 19 18 17 17 18 18 16 15 15 13 13
3 2 5 3 4 3 5 4 8 1 3 8 2 4 1 3 3 8 7 18 15 11 10 13 10 8 10 12 13 14 14 14 14 16 19 20 19 19 20 19 17 18 18 19 18 19 16 13 12
1 5 4 4 3 5 5 4 2 3 7 4 3 2 0 3 5 5 9 14 13 13 12 14 16 12 8 12 13 14 15 14 14 14 15 19 19 19 19 19 18 17 18 19 19 20 18 16 14
3 5 5 4 7 6 4 2 2 5 3 3 2 6 1 3 5 7 11 13 12 12 11 14 19 21 11 9 13 14 14 15 15 15 14 17 19 19 19 19 18 18 17 17 18 18 18 16 15
4 3 3 1 5 4 3 3 4 4 5 5 6 4 1 4 8 9 11 10 12 11 9 10 18 18 19 18 9 12 13 15 15 14 15 15 17 18 18 18 18 17 17 16 15 17 16 16 16
5 3 2 4 4 2 4 5 4 4 4 9 7 7 2 1 11 11 11 11 8 9 8 8 11 15 16 17 17 15 10 11 13 14 16 17 16 17 17 17 17 17 17 16 15 16 17 15 14
7 4 2 2 4 4 1 6 3 2 5 3 4 4 4 5 9 10 11 10 9 6 6 6 7 8 10 11 14 13 12 10 8 11 13 15 17 19 18 17 17 17 16 16 16 17 17 16 14
5 4 2 2 1 6 1 5 2 2 5 6 1 2 5 7 16 12 12 11 10 7 4 6 6 5 5 4 7 11 11 10 9 8 6 8 10 12 13 11 14 16 16 16 16 16 17 17 15
2 5 2 5 4 4 3 5 3 2 4 4 5 4 10 16 15 13 9 10 10 10 10 9 7 6 6 5 4 5 7 9 8 8 9 6 5 8 12 12 13 15 15 15 16 15 14 13 15
4 3 6 4 3 3 3 2 5 4 5 5 5 11 13 13 11 15 15 13 13 14 15 8 10 8 5 5 4 4 4 4 4 5 7 4 6 6 9 11 12 11 11 12 14 14 13 12 10
1 4 1 2 3 2 3 3 3 3 3 0 8 14 13 12 13 13 12 13 15 15 10 10 11 10 7 4 3 3 2 2 3 5 6 6 4 5 4 4 4 6 8 8 11 10 7 10 9
2 2 3 4 3 3 5 3 4 2 3 4 6 9 9 12 12 13 14 14 16 18 16 13 10 10 10 4 3 3 3 3 3 2 4 4 4 4 4 5 7 8 5 10 10 7 8 9 10
2 3 4 7 9 6 3 5 5 2 6 4 6 10 12 12 12 10 12 14 14 15 17 16 13 11 9 7 3 1 3 2 3 3 2 3 4 4 3 6 8 8 5 9 9 8 10 10 10
2 4 8 7 4 2 4 5 2 1 7 7 10 11 13 13 15 13 13 16 17 17 16 16 14 10 9 6 5 2 4 4 3 2 3 3 3 4 5 5 9 7 7 6 7 9 9 9 9
2 5 6 3 2 2 5 3 1 4 6 9 10 10 12 13 16 14 15 15 16 15 16 14 15 10 10 8 5 4 4 5 4 2 4 5 4 5 5 6 9 10 8 10 6 8 8 8 8
4 1 5 2 3 1 4 7 3 2 4 7 9 9 12 14 15 16 17 17 16 16 16 15 12 12 10 6 5 4 5 5 4 4 2 6 6 5 4 3 8 9 12 11 9 8 6 7 9
4 7 6 8 4 0 2 8 3 1 3 6 7 9 11 14 15 17 18 19 17 16 16 16 12 10 10 8 5 5 5 4 4 4 4 7 7 7 5 6 6 10 8 9 8 7 9 6 6
10 8 5 13 2 0 8 16 4 1 4 5 6 9 11 13 15 18 20 20 17 16 15 15 8 9 12 7 4 2 3 4 4 4 6 7 5 8 7 4 9 10 8 7 7 7 7 8 8
6 10 17 16 9 3 8 8 7 2 2 8 10 12 12 13 14 15 16 18 17 16 16 15 12 11 8 6 3 2 2 2 4 5 7 6 5 7 8 5 7 9 8 9 11 9 10 4 9
9 16 11 8 2 5 9 13 5 3 2 3 7 11 13 15 15 16 16 16 16 16 16 15 14 12 9 6 6 4 3 4 5 5 6 5 6 7 8 8 8 10 7 10 11 11 8 4 7
9 7 6 14 10 7 5 8 1 2 4 6 9 10 12 13 16 16 16 16 16 16 16 15 14 13 11 11 7 6 5 4 3 2 3 5 8 7 10 11 9 11 10 10 11 11 12 8 12
7 6 11 14 3 3 2 6 2 2 3 7 12 12 13 15 13 14 16 17 16 15 15 15 13 12 11 12 8 8 6 5 3 5 3 4 7 8 10 11 10 10 8 10 10 8 9 9 9
12 16 8 4 3 3 2 1 5 2 3 12 14 14 14 14 13 14 15 16 15 14 14 13 13 11 12 12 10 8 7 6 3 3 4 6 6 9 10 9 3 5 5 7 2 3 7 5 8
11 4 1 4 2 3 4 2 5 2 4 7 12 13 14 15 15 14 15 15 14 14 14 13 14 12 13 11 11 10 7 8 6 6 5 5 5 7 12 11 8 9 9 9 9 10 15 12 10
7 5 5 7 7 5 2 3 8 4 5 3 10 13 12 14 14 14 16 16 16 17 16 13 14 13 13 12 11 11 8 9 7 8 6 7 6 6 11 12 9 9 11 12 13 13 15 12 11
4 3 5 6 4 8 4 6 4 5 5 5 6 9 10 12 13 13 14 14 15 16 16 15 14 13 13 12 11 10 10 7 7 10 7 7 7 7 11 11 11 7 16 15 14 13 11 14 14
3 4 3 3 2 3 4 5 3 4 5 5 8 10 9 11 12 12 13 13 13 14 15 14 14 12 12 11 10 10 10 11 10 11 10 8 9 8 12 14 11 11 18 17 16 13 14 14 13
1 4 1 3 5 7 7 6 4 3 9 12 11 10 9 10 11 12 11 12 12 12 11 12 12 10 10 11 10 9 11 11 12 12 13 12 11 13 15 18 15 13 19 18 16 13 15 16 13
1 1 1 3 4 3 6 8 5 4 4 9 10 10 8 9 10 10 10 10 10 10 10 10 10 10 10 10 9 10 10 13 14 13 13 13 14 15 17 19 18 9 17 19 18 17 16 18 16
3 5 3 5 5 3 2 11 4 5 4 3 10 11 8 8 8 8 8 7 8 9 9 9 9 9 9 9 10 11 12 13 15 16 14 13 17 18 19 17 13 20 15 16 18 18 14 16 16
Wind_Direction
355 348 52 42 86 62 245 257 311 287 353 144 277 245 265 322 278 254 329 353 342 335 332 306 268 225 188 160 160 159 158 176 177 176 176 176 171 171 169 163 161 159 158 151 154 160 151 142 150
346 360 47 87 102 168 247 246 245 228 293 307 321 317 334 293 352 322 358 339 337 336 357 356 316 275 197 170 166 165 165 177 182 182 182 182 172 173 172 168 168 164 162 160 153 146 151 149 142
86 36 80 96 121 201 220 220 287 314 301 338 356 49 327 287 318 339 345 339 348 6 10 10 7 323 241 177 176 176 170 177 184 182 182 181 176 176 174 171 170 169 169 165 160 153 157 157 156
45 22 46 120 214 249 212 163 318 322 325 42 12 298 314 59 339 343 329 348 352 9 11 17 28 27 341 254 202 185 179 178 180 184 179 179 179 177 176 173 170 171 170 172 168 160 162 163 164
38 55 84 250 253 270 256 303 337 322 314 317 336 281 252 33 339 1 349 351 354 356 5 21 23 27 23 14 274 219 199 191 182 184 181 180 180 181 179 174 174 176 174 175 173 162 165 169 171
52 87 86 224 248 247 315 344 317 9 339 320 9 328 237 208 18 341 342 336 343 342 349 9 25 28 20 16 8 2 251 214 201 194 196 185 183 185 181 179 176 177 175 177 177 165 167 175 176
111 104 206 222 278 302 313 316 73 340 316 276 295 283 324 341 360 337 341 331 331 343 346 4 1 15 22 9 9 353 352 338 262 217 209 205 198 191 186 181 178 180 177 179 177 171 172 178 166
98 83 61 250 237 266 350 348 304 0 282 316 229 264 309 340 338 340 333 330 331 328 345 350 5 1 322 336 336 356 338 337 311 280 244 228 220 205 190 185 182 184 182 184 180 176 177 177 176
117 69 208 245 169 272 4 10 299 294 269 320 313 346 351 338 344 343 342 341 344 341 344 347 344 347 335 314 349 301 335 331 323 292 248 239 228 213 191 184 182 187 188 188 180 182 174 164 160
81 129 218 208 207 253 306 322 292 312 294 284 323 331 351 356 8 0 351 338 335 334 329 342 337 323 322 317 314 341 342 354 339 333 306 222 219 219 219 185 175 189 187 188 182 178 168 159 168
115 201 188 277 250 184 251 281 230 255 258 312 306 326 339 354 358 355 343 332 321 317 312 329 331 325 295 286 313 319 328 329 341 354 351 323 217 217 222 162 185 190 195 191 188 180 175 172 167
343 283 217 267 271 313 284 259 259 235 318 336 334 332 331 346 355 344 334 330 327 323 315 317 320 319 308 292 245 265 305 320 323 355 345 331 327 212 209 168 192 190 194 203 186 182 172 177 175
150 282 308 286 296 258 257 243 235 92 322 336 346 357 346 335 338 340 331 325 323 321 317 314 314 311 305 290 274 257 254 279 299 314 326 333 309 319 188 201 196 191 178 207 191 179 177 175 176
235 272 274 278 274 268 342 281 248 211 332 359 1 355 345 336 337 333 343 329 325 319 314 312 305 299 298 280 255 263 279 277 274 289 288 271 291 268 268 184 190 188 191 195 195 184 180 177 176
274 306 315 247 321 291 341 296 232 324 351 2 356 348 345 340 339 335 333 324 318 312 309 307 304 300 304 269 240 233 263 285 272 265 287 271 245 289 282 182 179 171 191 209 198 198 185 181 175
341 63 349 255 51 12 74 270 224 326 22 356 356 347 342 338 336 334 332 323 320 315 314 310 302 301 302 280 244 225 223 252 282 280 270 272 262 245 273 209 181 187 195 197 183 184 187 191 184
13 280 278 307 177 316 185 274 192 162 37 2 348 344 340 334 336 337 330 324 326 319 317 316 309 305 315 309 275 264 264 270 255 272 281 262 256 248 228 245 184 175 177 175 182 185 178 179 187
298 307 261 283 264 136 260 257 218 260 58 355 350 341 336 336 338 334 331 324 328 324 329 322 316 334 338 321 283 265 253 265 270 261 244 249 255 252 239 245 202 184 179 175 181 184 198 189 165
261 264 272 276 270 274 254 265 260 239 31 1 2 343 334 339 334 336 333 327 332 333 340 335 342 346 347 349 339 323 276 245 244 238 254 264 242 241 239 204 206 179 177 180 188 187 162 163 147
281 281 279 278 222 293 278 276 218 196 121 33 5 338 335 336 343 341 337 330 340 334 340 341 342 344 343 343 318 301 305 289 277 284 296 286 271 243 234 216 209 195 176 175 181 182 163 136 165
303 244 300 291 320 273 283 288 312 214 163 23 13 346 340 339 339 339 338 333 340 343 339 341 340 343 338 338 319 306 282 269 277 294 336 338 323 319 249 229 199 194 188 185 185 191 188 176 174
308 201 314 300 20 291 98 286 270 172 263 14 351 352 344 340 340 339 339 339 342 343 339 340 346 344 342 337 330 318 291 284 297 299 324 341 351 339 332 215 185 181 178 183 186 191 191 169 159
248 326 301 287 166 27 199 39 266 26 334 334 339 343 340 340 340 340 342 338 340 343 343 338 349 352 350 345 342 329 315 313 304 355 37 6 0 9 4 10 96 97 63 54 80 149 172 167 146
309 349 265 38 95 17 247 132 271 213 224 308 327 336 335 339 344 347 348 345 347 353 351 351 357 359 358 357 357 354 358 355 11 7 32 5 9 13 20 28 48 80 75 77 71 67 56 53 51
9 358 339 355 7 238 243 238 259 199 220 238 317 323 323 343 345 350 353 353 354 354 356 356 0 3 1 5 11 6 17 38 37 38 34 25 25 24 26 37 32 74 75 76 76 69 71 61 69
343 105 134 269 315 295 298 241 282 201 221 237 283 284 333 346 347 350 353 355 354 355 357 357 2 5 9 12 17 20 30 44 44 52 50 44 45 47 46 48 45 71 82 75 79 76 72 75 72
297 43 199 104 228 304 248 261 160 228 270 307 326 336 338 343 346 349 353 356 359 358 1 359 2 9 16 19 26 34 42 52 55 55 54 49 48 54 64 60 49 28 87 80 78 80 73 75 73
138 155 69 37 13 310 297 286 259 320 337 328 329 330 336 339 349 355 358 359 4 2 357 5 8 11 20 26 31 41 48 53 57 59 58 55 55 59 61 65 62 40 72 79 79 80 84 80 71
338 333 98 125 148 204 305 279 181 195 260 304 314 333 329 338 349 357 358 359 357 358 358 5 11 16 28 34 39 47 52 59 60 60 59 61 66 64 66 62 60 53 65 72 76 73 78 83 81
138 187 158 128 251 228 235 276 186 172 233 293 332 334 340 355 348 355 347 346 359 359 360 9 13 23 30 42 53 55 61 63 65 63 60 61 69 59 65 66 70 63 54 73 75 76 70 77 79